Hourly Data Report for October 13, 2004

TORONTO CITY
ONTARIO

43°40'00.000" N
79°24'00.000" W
112.50 m
6158355
71508
XTO

Download Data

Hourly Data (October 2004)
Hourly Data Report for October 13, 2004
TIME
LST
Temp Definition
°C
Dew Point Definition
°C
Rel Hum Definition
%
Precip. Amount Definition
mm

Wind Dir Definition
10's deg

Wind Spd Definition
km/h
Visibility Definition
km
Stn Press Definition
kPa
Hmdx Definition


Wind Chill Definition


Weather Definition


00:00 8.7 4.7 76   LegendMM LegendMM LegendMM 99.54     LegendNANA
01:00 7.3 4.9 85   LegendMM LegendMM LegendMM 99.49     LegendNANA
02:00 9.4 6.3 81   LegendMM LegendMM LegendMM 99.46     LegendNANA
03:00 9.2 6.5 83   LegendMM LegendMM LegendMM 99.42     LegendNANA
04:00 9.4 6.8 84   LegendMM LegendMM LegendMM 99.36     LegendNANA
05:00 8.0 6.1 88   LegendMM LegendMM LegendMM 99.36     LegendNANA
06:00 8.7 6.5 86   LegendMM LegendMM LegendMM 99.33     LegendNANA
07:00 8.5 6.1 85   LegendMM LegendMM LegendMM 99.34     LegendNANA
08:00 10.1 6.6 79   LegendMM LegendMM LegendMM 99.32     LegendNANA
09:00 11.7 6.4 70   LegendMM LegendMM LegendMM 99.31     LegendNANA
10:00 13.9 8.5 70   LegendMM LegendMM LegendMM 99.23     LegendNANA
11:00 15.4 7.8 60   LegendMM LegendMM LegendMM 99.22     LegendNANA
12:00 15.0 10.4 74   LegendMM LegendMM LegendMM 99.20     LegendNANA
13:00 15.6 9.2 66   LegendMM LegendMM LegendMM 99.07     LegendNANA
14:00 15.0 8.3 64   LegendMM LegendMM LegendMM 99.03     LegendNANA
15:00 14.8 5.1 52   LegendMM LegendMM LegendMM 98.99     LegendNANA
16:00 14.6 4.8 52   LegendMM LegendMM LegendMM 98.96     LegendNANA
17:00 14.3 6.6 60   LegendMM LegendMM LegendMM 98.93     LegendNANA
18:00 14.2 4.0 50   LegendMM LegendMM LegendMM 98.90     LegendNANA
19:00 13.9 5.8 58   LegendMM LegendMM LegendMM 98.90     LegendNANA
20:00 13.4 7.8 69   LegendMM LegendMM LegendMM 98.90     LegendNANA
21:00 13.6 8.3 70   LegendMM LegendMM LegendMM 98.88     LegendNANA
22:00 13.6 9.2 75   LegendMM LegendMM LegendMM 98.84     LegendNANA
23:00 13.7 9.4 75   LegendMM LegendMM LegendMM 98.81     LegendNANA

Notes on Data Quality.

Legend

  • E = Estimated
  • M = Missing
  • NA = Not Available*
  • [empty] = Indicates an unobserved value
Date modified: